Campo, CA

1:53 PM PDT on September 26, 2016 (GMT -0700)
Campo

Weather History for KCZZ - October, 2014

Change the Weather History Date:

Friday, October 24, 2014

  Actual Average Record
Temperature  
Mean Temperature 68 °F 59 °F  
Max Temperature 88 °F 77 °F 95 °F (1959)
Min Temperature 47 °F 41 °F 26 °F (1961)
Degree Days  
Heating Degree Days 0 7  
Month to date heating degree days 33 109  
Since 1 July heating degree days 50 159  
Cooling Degree Days 3 0  
Month to date cooling degree days 37 27  
Year to date cooling degree days 899 838  
Growing Degree Days 18 (Base 50)    
Moisture  
Dew Point 36 °F    
Average Humidity 35    
Maximum Humidity 52    
Minimum Humidity 17    
Precipitation  
Precipitation 0.00 in 0.03 in 0.30 in (1987)
Month to date precipitation 0.00 0.60  
Year to date precipitation 4.79 12.11  
Since 1 July precipitation 2.03  
Snow  
Snow 0.00 in - - ()
Month to date snowfall 0.0  
Year to date snowfall 0.0  
Snow Depth 0.00 in    
Sea Level Pressure  
Sea Level Pressure 29.96 in    
Wind  
Wind Speed 7 mph (NE)    
Max Wind Speed 17 mph    
Max Gust Speed 21 mph    
T = Trace of Precipitation, MM = Missing Value Source: NWS Daily Summary

Daily Weather History Graph

Daily Weather History Graph

Search for Another Location

Airport or City:

Trip Planner

Search our weather history database for the weather conditions in past years. The results will help you decide how hot, cold, wet, or windy it might be!

Date:

Astronomy

Oct. 24, 2014 Rise Set
Actual Time 6:56 AM PDT 6:02 PM PDT
Civil Twilight 6:31 AM PDT 6:27 PM PDT
Nautical Twilight 6:02 AM PDT 6:56 PM PDT
Astronomical Twilight 5:34 AM PDT 7:25 PM PDT
Moon 7:38 AM PDT (10/24) 6:48 PM PDT (10/24)
Length of Visible Light 11h 56m
Length of Day
11h 05m
New Moon, 1% of the Moon is Illuminated
Oct 24
New Moon
Oct 30
First Quarter
Nov 6
Full
Nov 14
Last Quarter
Nov 22
New

Hourly Weather History & Observations

Time (PDT) Temp. Dew Point Humidity Pressure Visibility Wind Dir Wind Speed Gust Speed Precip Events Conditions
12:52 AM 53.1 °F 35.1 °F 50% 29.96 in - NE 8.1 mph - N/A   Unknown
1:52 AM 51.1 °F 34.0 °F 52% 29.96 in - NE 5.8 mph - N/A   Unknown
2:52 AM 50.0 °F 33.1 °F 52% 29.95 in - NE 6.9 mph - N/A   Unknown
3:52 AM 48.9 °F 30.9 °F 50% 29.95 in - ENE 6.9 mph - N/A   Unknown
4:52 AM 50.0 °F 33.1 °F 52% 29.96 in - ENE 6.9 mph - N/A   Unknown
5:52 AM 51.1 °F 32.0 °F 48% 29.96 in - NE 5.8 mph - N/A   Unknown
6:52 AM 48.0 °F 30.9 °F 52% 29.99 in - NE 6.9 mph - N/A   Unknown
7:52 AM 54.0 °F 35.1 °F 49% 30.00 in - NE 6.9 mph - N/A   Unknown
8:52 AM 68.0 °F 37.0 °F 32% 30.00 in - Calm Calm - N/A   Unknown
9:52 AM 78.1 °F 35.1 °F 21% 29.99 in - Calm Calm - N/A   Unknown
10:52 AM 82.9 °F 37.9 °F 20% 29.98 in - Variable 4.6 mph - N/A   Unknown
11:52 AM 87.1 °F 37.9 °F 18% 29.96 in - Variable 4.6 mph - N/A   Unknown
12:52 PM 86.0 °F 37.0 °F 18% 29.94 in - SSW 10.4 mph - N/A   Unknown
1:52 PM 84.9 °F 37.9 °F 19% 29.91 in - SW 12.7 mph - N/A   Unknown
2:52 PM 86.0 °F 37.0 °F 18% 29.90 in - SSW 15.0 mph - N/A   Unknown
3:52 PM 84.0 °F 39.9 °F 21% 29.90 in - WSW 12.7 mph - N/A   Unknown
4:52 PM 82.0 °F 42.1 °F 24% 29.91 in - WSW 11.5 mph - N/A   Unknown
5:52 PM 78.1 °F 41.0 °F 27% 29.93 in - West 8.1 mph - N/A   Unknown
6:52 PM 72.0 °F 37.9 °F 29% 29.96 in - WSW 4.6 mph - N/A   Unknown
7:52 PM 64.9 °F 37.9 °F 37% 29.98 in - Calm Calm - N/A   Unknown
8:52 PM 60.1 °F 36.0 °F 41% 29.98 in - ENE 6.9 mph - N/A   Unknown
9:52 PM 57.0 °F 35.1 °F 44% 29.98 in - ENE 5.8 mph - N/A   Unknown
10:52 PM 55.9 °F 36.0 °F 47% 29.98 in - NE 6.9 mph - N/A   Unknown
11:52 PM 55.0 °F 37.0 °F 51% 29.99 in - NE 6.9 mph - N/A   Unknown